GW6857 Weather Reports


time (UTC)temp
C
wind
direction
speed
KPH
gust
KPH
rain 1hr
cm
rain 24hr
cm
rain mn
cm
humidity
%
barometer
mb
20260508044002 9 360 0.0 3.2 0.00 0.46 0.00 88 1009.9
20260508043505 9 360 0.0 3.2 0.00 0.46 0.00 89 1009.9
20260508043015 8 360 0.0 3.2 0.00 0.46 0.00 88 1009.8
20260508042511 8 360 0.0 3.2 0.00 0.46 0.00 88 1009.7
20260508042010 8 360 0.0 3.2 0.00 0.46 0.00 88 1009.6
20260508041518 8 360 0.0 3.2 0.00 0.46 0.00 89 1009.6
20260508041007 8 360 0.0 3.2 0.00 0.46 0.00 90 1009.5
20260508040512 8 360 0.0 3.2 0.00 0.46 0.00 90 1009.6
20260508040021 8 360 0.0 0.0 0.00 0.46 0.00 90 1009.6
20260508035506 8 360 0.0 0.0 0.00 0.46 0.46 90 1009.6
20260508035009 8 360 0.0 0.0 0.00 0.46 0.46 89 1009.5
20260508034525 7 360 0.0 0.0 0.00 0.48 0.46 89 1009.5
20260508034005 8 360 0.0 0.0 0.00 0.51 0.46 89 1009.5
20260508033505 8 360 0.0 0.0 0.00 0.51 0.46 89 1009.4
20260508033011 8 360 0.0 0.0 0.00 0.51 0.46 87 1009.4
20260508032504 8 360 0.0 0.0 0.00 0.51 0.46 88 1009.5
20260508032010 8 360 0.0 0.0 0.00 0.51 0.46 88 1009.6
20260508031515 8 360 0.0 0.0 0.00 0.53 0.46 87 1009.6
20260508031007 8 360 0.0 0.0 0.00 0.58 0.46 87 1009.6
20260508030506 8 360 0.0 0.0 0.00 0.61 0.46 86 1009.6
20260508030020 9 360 0.0 0.0 0.00 0.71 0.46 86 1009.6
20260508025509 9 360 0.0 0.0 0.00 0.89 0.46 86 1009.6
20260508025008 9 360 0.0 0.0 0.00 0.94 0.46 85 1009.6
20260508024525 9 360 0.0 0.0 0.00 0.94 0.46 84 1009.6
20260508024007 9 360 0.0 3.2 0.00 0.94 0.46 84 1009.7
20260508023513 9 360 0.0 3.2 0.00 0.94 0.46 85 1009.8
20260508023028 9 360 0.0 3.2 0.00 0.94 0.46 85 1009.8
20260508022503 9 360 0.0 0.0 0.00 0.94 0.46 84 1009.8
20260508022006 9 360 0.0 0.0 0.00 0.94 0.46 83 1009.9
20260508021521 10 188 0.0 0.0 0.00 0.94 0.46 82 1009.9
20260508021006 10 188 0.0 0.0 0.00 0.94 0.46 82 1009.8
20260508020505 10 360 0.0 0.0 0.00 0.94 0.46 82 1009.8
20260508020016 10 360 0.0 0.0 0.00 0.94 0.46 81 1009.7
20260508015505 10 188 0.0 0.0 0.00 0.94 0.46 81 1009.7
20260508015007 10 188 0.0 0.0 0.00 0.94 0.46 80 1009.7
20260508014520 10 188 0.0 0.0 0.00 0.94 0.46 79 1009.6
20260508014009 10 188 0.0 0.0 0.00 0.94 0.46 79 1009.6
20260508013517 10 188 0.0 0.0 0.00 0.94 0.46 78 1009.6
20260508013037 11 188 0.0 0.0 0.00 0.94 0.46 76 1009.6
20260508012511 11 188 0.0 0.0 0.00 0.94 0.46 75 1009.4
20260508012007 11 188 0.0 3.2 0.00 0.94 0.46 74 1009.5
20260508011529 12 188 0.0 3.2 0.00 0.94 0.46 73 1009.5
20260508011004 12 188 0.0 3.2 0.00 0.94 0.46 72 1009.5
20260508010502 12 190 1.6 6.4 0.00 0.94 0.46 71 1009.5
20260508010016 12 211 1.6 6.4 0.00 0.94 0.46 70 1009.4
20260508005508 12 223 1.6 4.8 0.00 0.94 0.46 69 1009.3
20260508005008 12 200 3.2 4.8 0.00 0.94 0.46 68 1009.3
20260508004534 12 200 0.0 3.2 0.00 0.94 0.46 67 1009.3
20260508004004 12 221 1.6 4.8 0.00 0.94 0.46 66 1009.3
20260508003507 13 195 1.6 6.4 0.00 0.94 0.46 65 1009.2
20260508003004 13 186 0.0 6.4 0.00 0.94 0.46 64 1009.0
20260508002502 13 201 1.6 9.7 0.00 0.94 0.46 63 1009.0
20260508002003 13 181 1.6 11.3 0.00 0.94 0.46 62 1008.9
20260508001513 13 211 1.6 11.3 0.00 0.94 0.46 61 1008.9
20260508001003 13 214 4.8 12.9 0.00 0.94 0.46 59 1008.7
20260508000503 14 173 3.2 12.9 0.00 0.94 0.46 56 1008.6
20260508000009 14 190 1.6 4.8 0.00 0.94 0.46 56 1008.5
20260507235504 14 36 0.0 0.0 0.00 0.94 0.46 53 1008.3
20260507235004 14 36 0.0 0.0 0.00 0.94 0.46 52 1008.3
20260507234508 14 36 0.0 0.0 0.00 0.94 0.46 50 1008.4
20260507234003 14 36 0.0 0.0 0.00 0.94 0.46 49 1008.3
20260507233503 15 36 0.0 0.0 0.00 0.94 0.46 47 1008.2
20260507233007 15 36 0.0 0.0 0.00 0.94 0.46 45 1008.2
20260507232504 15 36 0.0 0.0 0.00 0.94 0.46 45 1008.2
20260507232003 15 36 0.0 3.2 0.00 0.94 0.46 43 1008.1
20260507231505 16 36 0.0 3.2 0.00 0.94 0.46 37 1008.0
20260507231003 16 40 0.0 3.2 0.00 0.94 0.46 37 1008.0
20260507230505 16 45 0.0 3.2 0.00 0.94 0.46 39 1008.0
20260507230008 16 65 0.0 3.2 0.00 0.94 0.46 38 1008.1
20260507225503 16 51 0.0 3.2 0.00 0.94 0.46 37 1008.0
20260507225007 17 69 1.6 4.8 0.00 0.94 0.46 36 1007.9
20260507224508 17 24 0.0 4.8 0.00 0.94 0.46 38 1007.9
20260507224004 17 27 1.6 4.8 0.00 0.94 0.46 36 1008.0
20260507223504 17 75 1.6 4.8 0.00 0.94 0.46 36 1008.1
20260507223008 17 43 1.6 4.8 0.00 0.94 0.46 37 1008.1
20260507222504 17 74 1.6 4.8 0.00 0.94 0.46 34 1008.1
20260507222003 17 352 1.6 8.0 0.00 0.94 0.46 34 1008.1
20260507221516 17 311 1.6 9.7 0.00 0.94 0.46 33 1008.1
20260507221007 18 78 4.8 9.7 0.00 0.94 0.46 34 1008.1
20260507220506 18 32 1.6 6.4 0.00 0.94 0.46 35 1008.1
20260507220012 18 30 1.6 4.8 0.00 0.94 0.46 35 1008.1
20260507215503 18 53 0.0 4.8 0.00 0.94 0.46 38 1008.2
20260507215002 18 297 1.6 4.8 0.00 0.94 0.46 35 1008.2
20260507214511 17 50 0.0 4.8 0.00 0.94 0.46 35 1008.1
20260507214003 17 55 1.6 4.8 0.00 0.94 0.46 38 1008.2
20260507213509 18 300 3.2 6.4 0.00 0.94 0.46 35 1008.2
20260507213013 17 336 1.6 8.0 0.00 0.94 0.46 36 1008.2
20260507212504 17 39 0.0 8.0 0.00 0.94 0.46 37 1008.1
20260507212004 17 11 3.2 8.0 0.00 0.94 0.46 35 1008.1
20260507211512 18 23 1.6 6.4 0.00 0.94 0.46 35 1008.1
20260507211004 18 321 3.2 11.3 0.00 0.94 0.46 33 1008.0
20260507210504 18 20 3.2 11.3 0.00 0.94 0.46 33 1008.0
20260507210028 18 57 3.2 12.9 0.00 0.94 0.46 35 1007.9
20260507205504 18 309 3.2 14.5 0.00 0.94 0.46 35 1007.9
20260507205004 18 301 4.8 14.5 0.00 0.94 0.46 39 1007.9
20260507204511 19 53 3.2 8.0 0.00 0.94 0.46 33 1007.9
20260507204003 18 34 1.6 6.4 0.00 0.94 0.46 37 1007.8
20260507203504 18 321 1.6 6.4 0.00 0.94 0.46 33 1007.8
20260507203012 18 19 3.2 14.5 0.00 0.94 0.46 36 1007.8
20260507202504 18 19 3.2 14.5 0.00 0.94 0.46 35 1007.9
20260507202005 18 71 3.2 11.3 0.00 0.94 0.46 36 1007.9
20260507201512 18 12 1.6 8.0 0.00 0.94 0.46 40 1008.0
20260507201003 18 53 1.6 8.0 0.00 0.94 0.46 35 1008.0
20260507200504 18 300 1.6 14.5 0.00 0.94 0.46 38 1008.1
20260507200015 17 317 4.8 14.5 0.00 0.94 0.46 38 1008.2
20260507195506 17 253 3.2 11.3 0.00 0.94 0.46 35 1008.2
20260507195004 18 11 3.2 9.7 0.00 0.94 0.46 36 1008.2
20260507194512 18 44 1.6 9.7 0.00 0.94 0.46 40 1008.3
20260507194007 18 36 1.6 9.7 0.00 0.94 0.46 35 1008.4
20260507193506 18 104 1.6 9.7 0.00 0.94 0.46 37 1008.5
20260507193011 17 68 1.6 9.7 0.00 0.94 0.46 36 1008.6
20260507192505 17 52 4.8 9.7 0.00 0.94 0.46 37 1008.6
20260507192004 17 191 3.2 9.7 0.00 0.94 0.46 37 1008.7
20260507191514 17 49 3.2 9.7 0.00 0.94 0.46 38 1008.8
20260507191004 17 331 4.8 11.3 0.00 0.94 0.46 39 1008.9
20260507190504 17 320 3.2 11.3 0.00 0.94 0.46 39 1008.9
20260507190014 17 84 3.2 14.5 0.00 0.94 0.46 38 1008.8
20260507185507 17 348 4.8 14.5 0.00 0.94 0.46 37 1008.8
20260507185005 17 312 4.8 20.9 0.00 0.94 0.46 43 1008.9
20260507184518 17 311 3.2 20.9 0.00 0.94 0.46 40 1009.0
20260507184007 17 264 3.2 17.7 0.00 0.94 0.46 41 1009.0
20260507183505 17 24 4.8 12.9 0.00 0.94 0.46 38 1009.2
20260507183012 17 297 4.8 14.5 0.00 0.94 0.46 43 1009.2
20260507182509 17 34 6.4 14.5 0.00 0.94 0.46 39 1009.3
20260507182009 17 77 4.8 14.5 0.00 0.94 0.46 37 1009.3
20260507181515 17 11 3.2 11.3 0.00 0.94 0.46 42 1009.3
20260507181008 16 317 4.8 11.3 0.00 0.94 0.46 38 1009.3
20260507180506 16 15 3.2 11.3 0.00 0.94 0.46 42 1009.5
20260507180014 17 312 4.8 12.9 0.00 0.94 0.46 39 1009.5
20260507175506 17 5 4.8 17.7 0.00 0.94 0.46 43 1009.5
20260507175007 17 36 6.4 19.3 0.00 0.94 0.46 41 1009.5
20260507174516 16 305 6.4 19.3 0.00 0.94 0.46 40 1009.5
20260507174009 16 64 3.2 12.9 0.00 0.94 0.46 40 1009.7
20260507173507 16 269 4.8 16.1 0.00 0.94 0.46 41 1009.9
20260507173020 16 323 8.0 16.1 0.00 0.94 0.46 39 1010.0
20260507172509 17 72 3.2 8.0 0.00 0.94 0.46 43 1010.0
20260507172002 17 33 3.2 9.7 0.00 0.94 0.46 46 1010.0
20260507171514 16 62 1.6 14.5 0.00 0.94 0.46 47 1010.1
20260507171007 16 333 4.8 17.7 0.00 0.94 0.46 40 1010.2
20260507170507 16 46 8.0 17.7 0.00 0.94 0.46 42 1010.3
20260507170019 16 341 3.2 12.9 0.00 0.94 0.46 44 1010.3
20260507165506 16 25 3.2 12.9 0.00 0.94 0.46 42 1010.2
20260507165006 16 57 4.8 12.9 0.00 0.94 0.46 45 1010.2
20260507164516 16 9 1.6 11.3 0.00 0.94 0.46 52 1010.3
20260507164007 16 51 3.2 11.3 0.00 0.94 0.46 48 1010.5
20260507163506 15 37 4.8 14.5 0.00 0.94 0.46 51 1010.6
20260507163018 15 323 4.8 14.5 0.00 0.94 0.46 49 1010.7
20260507162509 16 12 4.8 17.7 0.00 0.94 0.46 47 1010.7
20260507162008 16 334 6.4 16.1 0.00 0.94 0.46 49 1010.7
20260507161518 15 75 3.2 12.9 0.00 0.94 0.46 50 1010.8
20260507161005 15 63 1.6 11.3 0.00 0.94 0.46 53 1010.8
20260507160504 15 61 4.8 14.5 0.00 0.94 0.46 54 1011.0
20260507160021 15 28 1.6 14.5 0.00 0.94 0.46 55 1011.0
20260507155510 15 281 4.8 12.9 0.00 0.94 0.46 50 1011.0
20260507155007 15 5 3.2 14.5 0.00 0.94 0.46 52 1011.0
20260507154529 15 42 0.0 17.7 0.00 0.94 0.46 53 1011.1
20260507154009 14 289 3.2 17.7 0.00 0.94 0.46 55 1011.2
20260507153506 14 352 6.4 17.7 0.00 0.94 0.46 54 1011.3
20260507153030 15 17 3.2 14.5 0.00 0.94 0.46 53 1011.6
20260507152510 15 352 4.8 14.5 0.00 0.94 0.46 55 1011.7
20260507152009 14 36 3.2 12.9 0.00 0.94 0.46 63 1011.8
20260507151521 13 352 4.8 8.0 0.00 0.94 0.46 58 1011.8
20260507151007 14 46 4.8 8.0 0.00 0.94 0.46 61 1011.7
20260507150507 13 331 3.2 9.7 0.00 0.94 0.46 63 1011.7
20260507150020 13 319 3.2 9.7 0.00 0.94 0.46 62 1011.8
20260507145505 13 35 3.2 9.7 0.00 0.94 0.46 61 1011.7
20260507145010 13 34 1.6 12.9 0.00 0.94 0.46 65 1011.8
20260507144521 13 13 4.8 12.9 0.00 0.94 0.46 65 1011.8
20260507144007 13 59 3.2 11.3 0.00 0.94 0.46 65 1011.8
20260507143507 13 44 4.8 9.7 0.00 0.94 0.46 66 1012.0
20260507143025 13 360 3.2 11.3 0.00 0.94 0.46 68 1012.1
20260507142509 13 44 4.8 11.3 0.00 0.94 0.46 67 1012.1
20260507142010 13 69 3.2 16.1 0.00 0.94 0.46 66 1012.1
20260507141520 13 360 3.2 17.7 0.00 0.94 0.46 69 1012.1
20260507141007 12 76 3.2 17.7 0.00 0.94 0.46 67 1012.2
20260507140507 12 47 3.2 11.3 0.00 0.94 0.46 67 1012.2
20260507140019 12 5 4.8 11.3 0.00 0.94 0.46 69 1012.1
20260507135506 12 5 3.2 12.9 0.00 0.94 0.46 69 1012.1
20260507135006 12 10 3.2 12.9 0.00 0.94 0.46 67 1012.1
20260507134523 12 69 3.2 11.3 0.00 0.94 0.46 70 1012.1
20260507134006 12 317 4.8 11.3 0.00 0.94 0.46 70 1012.1
20260507133506 12 40 3.2 8.0 0.00 0.94 0.46 72 1012.2
20260507133022 12 31 3.2 8.0 0.00 0.94 0.46 75 1012.1
20260507132506 12 40 1.6 8.0 0.00 0.94 0.46 73 1012.1
20260507132010 12 51 1.6 8.0 0.00 0.94 0.46 73 1012.1
20260507131524 12 11 3.2 11.3 0.00 0.94 0.46 76 1012.0
20260507131007 12 338 3.2 11.3 0.00 0.94 0.46 75 1012.1
20260507130510 12 334 4.8 11.3 0.00 0.94 0.46 76 1012.1
20260507130035 12 324 1.6 8.0 0.00 0.94 0.46 78 1012.2
20260507125513 11 352 1.6 8.0 0.00 0.94 0.46 78 1012.1
20260507125012 11 315 3.2 8.0 0.00 0.94 0.46 80 1012.1
20260507124527 11 39 3.2 8.0 0.00 0.94 0.46 80 1012.1
20260507124007 11 17 3.2 8.0 0.00 0.94 0.46 79 1012.2
20260507123511 11 333 1.6 6.4 0.00 0.94 0.46 80 1012.2
20260507123018 11 352 1.6 8.0 0.00 0.94 0.46 81 1012.3
20260507122507 11 22 3.2 9.7 0.00 0.94 0.46 81 1012.3
20260507122012 11 304 3.2 9.7 0.00 0.94 0.46 81 1012.1
20260507121522 11 12 3.2 6.4 0.00 0.94 0.46 83 1012.1
20260507121003 10 307 1.6 6.4 0.00 0.94 0.46 83 1012.1
20260507120509 10 295 1.6 6.4 0.00 0.94 0.46 84 1012.1
20260507120018 10 29 1.6 6.4 0.00 0.94 0.46 84 1012.0
20260507115504 10 360 1.6 4.8 0.00 0.94 0.46 84 1012.1
20260507115009 10 360 1.6 4.8 0.00 0.94 0.46 85 1012.1
20260507114512 10 360 1.6 6.4 0.00 0.94 0.46 85 1012.1
20260507114014 10 360 1.6 6.4 0.00 0.94 0.46 85 1012.1
20260507113504 10 360 1.6 4.8 0.00 0.94 0.46 85 1012.0
20260507113018 10 360 3.2 4.8 0.00 0.94 0.46 86 1011.8
20260507112509 10 360 0.0 4.8 0.00 0.94 0.46 86 1011.7
20260507112009 10 360 1.6 4.8 0.00 0.94 0.46 87 1011.7
20260507111521 10 360 1.6 4.8 0.00 0.94 0.46 87 1011.7
20260507111007 10 360 1.6 4.8 0.00 0.94 0.46 88 1011.6
20260507110510 10 360 1.6 3.2 0.00 0.94 0.46 88 1011.3
20260507110004 10 360 0.0 3.2 0.00 0.94 0.46 88 1011.2
20260507105505 10 360 0.0 3.2 0.00 0.94 0.46 89 1011.2
20260507105004 10 360 0.0 3.2 0.00 0.94 0.46 89 1011.1
20260507104511 10 360 0.0 3.2 0.00 0.94 0.46 89 1011.2
20260507104008 10 318 0.0 3.2 0.00 0.94 0.46 89 1011.3
20260507103504 10 318 0.0 3.2 0.00 0.94 0.46 89 1011.1
20260507103026 10 318 0.0 3.2 0.00 0.94 0.46 89 1011.0
20260507102507 10 318 0.0 3.2 0.00 0.94 0.46 89 1010.7
20260507102006 9 318 0.0 3.2 0.00 0.94 0.46 89 1010.6
20260507101518 9 318 0.0 3.2 0.00 0.94 0.46 89 1010.7
20260507101007 9 318 0.0 3.2 0.00 0.94 0.46 89 1010.8
20260507100506 9 318 0.0 3.2 0.00 0.94 0.46 89 1010.8
20260507100027 9 318 0.0 3.2 0.00 0.94 0.46 88 1010.9
20260507095509 9 331 0.0 3.2 0.00 0.94 0.46 89 1010.9
20260507095004 9 325 0.0 3.2 0.00 0.94 0.46 89 1010.7
20260507094511 9 327 0.0 3.2 0.00 0.94 0.46 89 1010.8
20260507094003 9 327 0.0 3.2 0.00 0.94 0.46 88 1010.6
20260507093504 9 327 0.0 3.2 0.00 0.94 0.46 88 1010.8
20260507093012 9 336 1.6 3.2 0.00 0.94 0.46 88 1010.6
20260507092513 9 325 0.0 4.8 0.00 0.94 0.46 88 1010.5
20260507092006 9 19 0.0 4.8 0.00 0.94 0.46 88 1010.4
20260507091524 9 23 1.6 4.8 0.00 0.94 0.46 88 1010.6
20260507091006 10 329 0.0 4.8 0.00 0.94 0.46 88 1010.6
20260507090507 10 45 1.6 4.8 0.00 0.94 0.46 88 1010.4
20260507090022 10 309 1.6 3.2 0.00 0.94 0.46 88 1010.4
20260507085507 10 12 1.6 4.8 0.00 0.94 0.46 88 1010.3
20260507085009 10 5 1.6 4.8 0.00 0.94 0.46 88 1010.2
20260507084526 10 5 1.6 4.8 0.00 0.94 0.46 88 1010.2
20260507084010 10 323 0.0 6.4 0.00 0.94 0.46 88 1010.0
20260507083504 10 20 3.2 8.0 0.00 0.94 0.46 88 1010.1
20260507083009 10 5 1.6 8.0 0.00 0.94 0.46 88 1010.0
20260507082504 10 315 3.2 6.4 0.00 0.94 0.46 88 1010.1
20260507082004 10 13 1.6 9.7 0.00 0.94 0.46 87 1010.1
20260507081515 10 360 4.8 9.7 0.00 0.94 0.46 87 1010.2
20260507081007 10 49 3.2 8.0 0.00 0.94 0.46 87 1010.2
20260507080507 10 340 3.2 14.5 0.00 0.94 0.46 87 1010.4
20260507080018 10 350 3.2 14.5 0.00 0.94 0.46 87 1010.4
20260507075509 10 23 1.6 14.5 0.00 0.94 0.46 87 1010.5
20260507075009 10 360 3.2 9.7 0.00 0.94 0.46 87 1010.9
20260507074527 10 329 3.2 11.3 0.00 0.94 0.46 87 1010.8
20260507074012 10 347 3.2 11.3 0.00 0.94 0.46 88 1010.8
20260507073511 10 12 1.6 12.9 0.03 0.94 0.46 88 1010.5
20260507073026 10 5 3.2 12.9 0.08 0.94 0.46 88 1010.3
20260507072507 10 351 3.2 9.7 0.10 0.94 0.46 88 1010.4
20260507072003 10 26 1.6 6.4 0.13 0.94 0.46 89 1010.6
20260507071536 10 42 1.6 6.4 0.20 0.94 0.46 89 1010.6
20260507071007 10 24 1.6 4.8 0.23 0.94 0.46 89 1010.4
20260507070504 10 30 1.6 6.4 0.28 0.94 0.46 89 1010.3
20260507070020 10 22 1.6 8.0 0.28 0.94 0.46 89 1010.2
20260507065506 10 53 1.6 8.0 0.30 0.94 0.46 89 1010.0
20260507065006 10 310 3.2 4.8 0.33 0.94 0.46 89 1010.2
20260507064523 10 22 1.6 8.0 0.41 0.94 0.46 89 1010.2
20260507064010 10 43 3.2 8.0 0.46 0.94 0.46 88 1010.2
20260507063511 10 352 3.2 6.4 0.43 0.91 0.43 88 1010.2
20260507063023 10 317 1.6 4.8 0.38 0.86 0.38 88 1010.9
20260507062511 10 17 3.2 6.4 0.36 0.84 0.36 87 1010.7
20260507062011 11 249 1.6 9.7 0.33 0.81 0.33 87 1010.5
20260507061525 11 58 3.2 9.7 0.25 0.74 0.25 87 1010.2
20260507061004 11 19 1.6 8.0 0.23 0.71 0.23 86 1010.1
20260507060503 11 10 3.2 12.9 0.18 0.66 0.18 85 1010.5
20260507060016 11 67 4.8 12.9 0.18 0.66 0.18 85 1010.2
20260507055505 11 5 3.2 8.0 0.15 0.64 0.15 85 1009.6
20260507055012 12 26 3.2 8.0 0.13 0.61 0.13 83 1010.4
20260507054519 12 268 3.2 6.4 0.05 0.53 0.05 83 1011.1
20260507054014 12 275 1.6 4.8 0.00 0.48 0.00 83 1010.3
20260507053510 12 315 0.0 3.2 0.00 0.48 0.00 82 1009.5
20260507053026 12 23 0.0 4.8 0.00 0.48 0.00 84 1009.2
20260507052510 12 306 1.6 4.8 0.00 0.48 0.00 83 1009.6
20260507052008 12 318 0.0 4.8 0.00 0.48 0.00 84 1009.8
20260507051538 12 5 1.6 4.8 0.00 0.48 0.00 84 1009.2
20260507051009 12 5 1.6 3.2 0.00 0.48 0.00 84 1009.5
20260507050509 12 315 0.0 3.2 0.00 0.48 0.00 84 1009.4
20260507050034 12 306 0.0 3.2 0.00 0.48 0.00 84 1009.3
20260507045504 13 360 0.0 3.2 0.00 0.48 0.00 84 1009.2
20260507045009 13 5 0.0 4.8 0.00 0.48 0.00 84 1009.3
20260507044519 13 43 0.0 9.7 0.03 0.48 0.00 84 1009.2